INTELSAT 17 (IS-17)

Last updated on Tue Oct 08 2024 00:02:38 GMT+0000 (Coordinated Universal Time)

1 37238U 10065B 24281.36438142 .00000009 00000+0 00000+0 0 9990 2 37238 0.0295 242.7114 0002988 332.9783 357.9926 1.00274119 50724
UTC large
Height (km)
Speed (km/s)
/
Latitude / Longitude
Inclination (degrees)
Orbital Period (minutes)
Azimuth
Elevation
Range (km)
Doppler Factor

Next 0 passes for location: London (51.5072 / 0.1276)

Sorry there are no passes over London.